This is the latest recevied weather packets stored in our database for station/object K7ZQU-7. If no packets are shown the sender has not sent any weather packets the latest 10 day(s).
| Time | Temp. | Humidity | Pressure | Rain* | Wind** | Luminosity | Snow |
|---|---|---|---|---|---|---|---|
| 1777955005 | 10.56° C | 74% | 1012.5 hPa | 0 mm | 2.24 m/s, 294° | - | - |
| 1777954706 | 10.56° C | 73% | 1012.4 hPa | 0 mm | 3.13 m/s, 287° | - | - |
| 1777954407 | 10.56° C | 71% | 1012.4 hPa | 0 mm | 0.89 m/s, 309° | - | - |
| 1777954105 | 10.56° C | 71% | 1012.2 hPa | 0 mm | 2.24 m/s, 329° | - | - |
| 1777953806 | 10.56° C | 69% | 1012.2 hPa | 0 mm | 1.79 m/s, 297° | - | - |
| 1777953508 | 11.11° C | 69% | 1012.4 hPa | 0 mm | 1.34 m/s, 318° | - | - |
| 1777953209 | 11.11° C | 69% | 1012.2 hPa | 0 mm | 1.79 m/s, 323° | - | - |
| 1777952910 | 11.11° C | 68% | 1012.2 hPa | 0 mm | 2.24 m/s, 314° | - | - |
| 1777952608 | 11.11° C | 67% | 1012.2 hPa | 0 mm | 1.34 m/s, 294° | - | - |
| 1777952309 | 11.67° C | 67% | 1012.1 hPa | 0 mm | 1.34 m/s, 328° | - | - |
| 1777952010 | 11.67° C | 65% | 1012 hPa | 0 mm | 2.68 m/s, 314° | - | - |
| 1777951711 | 11.67° C | 63% | 1012 hPa | 0 mm | 2.24 m/s, 308° | - | - |
| 1777951412 | 11.67° C | 63% | 1012 hPa | 0 mm | 3.58 m/s, 315° | - | - |
| 1777950812 | 12.22° C | 60% | 1011.9 hPa | 0 mm | 2.68 m/s, 300° | - | - |
| 1777950214 | 12.78° C | 58% | 1011.9 hPa | 0 mm | 2.24 m/s, 281° | - | - |
| 1777949915 | 12.78° C | 57% | 1011.8 hPa | 0 mm | 3.13 m/s, 294° | - | - |
| 1777949016 | 13.33° C | 54% | 1011.7 hPa | 0 mm | 3.13 m/s, 311° | - | - |
| 1777948418 | 13.89° C | 51% | 1011.7 hPa | 0 mm | 1.79 m/s, 312° | - | - |
| 1777947817 | 14.44° C | 49% | 1011.8 hPa | 0 mm | 3.13 m/s, 298° | - | - |
| 1777947519 | 14.44° C | 48% | 1011.7 hPa | 0 mm | 1.79 m/s, 321° | - | - |
| 1777947220 | 15° C | 48% | 1011.7 hPa | 0 mm | 1.79 m/s, 304° | - | - |
| 1777946921 | 15° C | 46% | 1011.7 hPa | 0 mm | 3.13 m/s, 300° | - | - |
| 1777946619 | 15° C | 45% | 1011.7 hPa | 0 mm | 2.68 m/s, 305° | - | - |
| 1777946320 | 15.56° C | 43% | 1011.7 hPa | 0 mm | 3.13 m/s, 311° | - | - |
| 1777946022 | 15.56° C | 42% | 1011.7 hPa | 0 mm | 2.24 m/s, 308° | - | - |
* Rain latest hour (hover to see other rain measurements)
** Current wind speed in m/s (hover to see current wind gust speed)